Wind_Speed
45 45 45 47 49 51 51 51 52 53 52 55 57 56 59 59 60 63 61 59 60 62 63 62 62 62 62 62 60 57 56 56 56 53 50 49 49 50 51 52 53 51 45 46 48 45 45 43 42 42 40 38 38 39 44 48 49 48 47 46 41 36 36 39 41 39 35 33 32 33 37 37 36 36 32 26 26 27 24 25 33 41 45 48 48 44
44 43 44 47 49 49 48 50 52 52 52 55 55 56 57 56 60 61 57 57 58 58 60 59 58 58 57 56 57 54 51 52 54 51 49 49 49 50 49 47 49 48 43 46 47 42 40 41 40 39 38 37 37 39 44 48 49 51 50 48 46 43 41 41 40 38 37 35 34 38 43 42 40 41 35 30 28 25 27 35 43 46 47 47 46 42
45 45 47 49 49 49 50 52 53 52 54 56 55 56 56 56 60 59 55 57 57 55 57 57 55 54 53 53 54 52 48 49 51 50 49 49 48 48 45 42 45 46 45 47 46 39 36 38 39 38 37 36 36 39 43 46 48 50 51 50 49 46 43 39 39 40 39 35 34 39 43 42 43 43 37 33 31 29 32 39 44 44 44 43 41 38
47 48 49 49 49 51 52 52 53 53 55 55 55 56 55 57 59 56 57 58 55 54 56 56 53 52 51 51 52 50 48 49 49 48 49 49 47 48 46 42 42 44 45 45 43 38 37 38 39 39 37 36 36 39 43 46 47 47 48 49 48 45 41 36 36 39 38 34 35 40 45 48 47 43 37 35 34 33 35 37 39 40 41 40 38 36
50 50 49 50 51 52 52 51 52 53 54 54 55 55 55 57 56 54 57 56 52 54 55 54 53 50 49 50 51 50 48 49 49 48 49 49 48 48 47 45 44 44 44 45 43 39 40 42 40 40 38 36 37 40 43 44 44 44 44 45 44 43 40 37 37 41 41 37 38 42 47 49 47 42 38 35 36 37 35 36 39 40 41 39 37 38
51 49 49 52 51 51 51 51 52 53 53 53 54 55 55 56 54 52 56 54 52 55 54 53 52 49 49 49 48 50 48 48 51 50 49 49 49 48 46 46 45 43 42 45 43 39 42 44 40 39 39 39 39 39 40 40 38 39 39 38 38 39 41 40 41 44 45 42 42 44 46 48 46 41 38 36 38 39 38 38 40 42 43 42 41 43
52 50 51 53 51 51 52 51 52 52 53 54 54 54 54 54 53 52 55 53 52 55 53 50 50 49 47 47 48 50 49 48 50 51 48 47 49 48 45 46 46 44 45 45 41 39 41 40 37 38 39 39 39 36 33 32 30 30 31 32 35 38 41 41 42 44 43 43 47 49 50 51 48 43 40 39 40 42 41 41 42 44 45 45 45 46
53 51 52 53 51 52 52 51 53 53 53 55 53 52 54 53 52 51 54 53 52 54 51 48 50 49 45 46 49 50 47 47 49 50 48 47 49 50 46 46 46 44 45 41 36 35 36 35 35 36 37 39 36 31 26 24 23 24 27 34 39 41 40 40 42 43 44 47 49 51 51 49 45 43 41 40 41 43 44 45 44 45 46 47 47 47
52 52 52 52 52 52 51 52 53 52 53 54 51 51 54 53 51 51 51 51 51 51 48 48 50 48 44 44 48 48 46 46 48 48 47 46 47 48 46 45 46 43 41 39 39 37 34 35 37 36 35 35 30 23 20 20 23 25 29 36 42 42 41 41 42 43 49 51 48 48 50 44 40 42 42 41 41 43 44 44 44 44 46 46 45 43
50 53 53 51 52 52 52 53 51 50 53 53 50 52 54 50 49 49 47 48 50 48 46 47 48 46 43 43 47 49 45 45 47 45 44 44 43 45 46 45 45 42 38 38 40 38 35 36 39 37 33 28 21 18 20 25 33 35 33 34 38 40 41 43 44 47 51 49 44 45 46 41 39 41 43 42 41 42 43 43 43 44 44 42 40 37
51 53 53 51 52 52 53 53 50 51 54 52 51 52 51 47 46 46 44 46 47 45 44 45 46 45 43 44 48 47 42 42 44 40 39 42 41 42 43 43 44 40 35 36 39 41 41 39 39 37 33 28 25 27 34 39 43 41 35 37 45 47 46 45 45 48 48 43 40 42 42 40 39 39 41 41 40 41 41 42 43 43 42 40 38 37
53 54 53 52 53 53 53 53 51 53 55 52 50 49 46 45 44 42 43 44 43 43 43 43 44 44 42 45 48 42 37 39 38 34 36 38 38 38 39 41 42 37 35 39 41 45 45 40 39 40 38 36 36 41 50 52 50 47 43 42 49 51 52 51 50 50 47 42 41 42 42 40 39 38 40 39 39 40 39 40 42 41 41 41 40 39
54 54 54 53 54 54 54 54 53 54 54 51 48 45 43 42 41 40 41 41 41 42 42 42 43 43 43 46 43 36 35 36 33 32 33 31 30 32 34 36 34 31 35 41 41 42 42 39 41 42 43 46 47 53 60 59 55 53 51 45 41 40 46 50 52 52 49 45 42 42 42 40 40 40 40 39 39 40 40 41 42 41 41 41 38 36
55 55 55 54 54 55 55 55 54 55 53 48 44 40 40 41 40 40 40 40 41 41 40 41 42 42 44 45 37 31 35 35 32 32 30 25 25 30 34 33 28 24 28 35 39 42 44 42 43 43 45 50 55 59 62 60 60 58 58 54 43 37 43 48 49 51 51 48 44 42 42 41 42 43 42 41 41 41 41 41 41 41 39 37 35 34
56 56 55 55 55 55 55 56 55 53 48 43 39 38 39 40 40 40 39 38 37 38 38 38 39 41 42 40 33 32 34 30 26 28 28 27 26 31 33 28 24 22 24 31 37 41 43 43 44 45 48 53 59 63 62 60 62 63 63 62 55 49 49 48 47 49 49 48 46 45 44 44 45 43 43 44 42 39 39 40 40 38 35 33 32 32
56 57 57 56 56 55 56 56 53 49 44 40 38 37 38 41 41 41 39 37 37 38 35 34 37 39 38 35 34 37 36 30 27 28 30 31 29 31 33 30 27 26 26 31 37 39 40 40 45 48 50 55 60 65 65 62 63 65 65 65 63 60 55 48 45 47 47 47 47 47 47 47 46 45 44 44 41 38 38 39 37 32 30 29 28 27
56 57 58 58 56 55 55 55 49 43 41 39 37 37 39 41 42 41 39 38 39 39 37 36 36 35 35 33 34 39 39 34 31 31 33 34 33 33 33 33 35 33 30 33 37 39 40 43 49 51 51 55 59 63 66 64 62 62 62 63 64 65 60 53 48 47 46 46 47 48 48 47 46 45 44 43 41 39 37 35 32 28 28 27 25 24
56 57 58 57 57 55 54 51 45 40 39 39 37 37 38 40 41 40 38 38 39 38 38 38 36 35 35 33 32 36 37 35 33 32 33 33 35 33 26 23 29 32 33 37 40 43 46 50 53 51 49 54 58 61 66 66 61 57 58 61 63 64 61 57 54 50 46 45 47 49 49 47 46 46 46 45 44 43 39 35 32 29 27 26 25 25
55 56 57 56 56 54 51 46 42 38 38 39 38 36 36 38 38 38 38 37 37 38 38 38 37 35 33 31 32 35 35 33 33 33 32 30 32 32 25 21 26 30 32 38 44 48 50 52 51 46 47 52 55 59 65 66 60 56 56 59 61 63 61 58 56 53 50 46 45 47 48 47 46 47 47 47 46 46 44 42 38 33 31 30 29 29
55 55 56 55 55 53 47 41 38 37 38 38 38 37 36 36 34 34 36 35 36 37 37 37 35 32 31 32 34 35 33 31 32 34 33 32 33 34 32 31 34 37 38 42 45 45 45 47 45 42 44 49 51 54 59 62 60 58 58 58 58 59 59 58 56 54 52 50 46 45 46 45 44 45 46 47 47 46 46 45 42 38 35 34 34 35
55 55 55 54 53 50 43 40 38 37 37 38 37 37 37 35 34 34 32 29 31 33 34 35 34 31 32 34 36 38 34 29 31 34 35 36 39 41 43 44 44 45 47 48 46 44 42 42 41 39 42 45 46 48 53 58 60 59 59 59 57 56 57 57 56 54 53 52 49 46 45 44 43 44 46 46 47 46 45 45 44 41 39 38 40 42
54 54 53 50 47 45 42 39 38 36 36 37 36 36 36 35 33 33 31 27 28 31 33 35 33 32 35 37 38 41 38 32 33 35 37 40 42 44 47 50 49 49 49 47 45 43 42 41 40 40 42 43 43 45 50 56 59 58 57 57 58 56 54 54 55 54 54 53 51 50 48 46 47 48 48 47 45 43 43 44 45 45 45 45 46 47
53 52 51 48 42 40 38 36 35 35 35 36 36 36 36 33 31 32 33 33 31 32 34 35 33 33 36 39 41 43 42 40 39 40 42 44 44 45 47 49 48 47 48 46 44 44 43 41 40 40 42 44 46 48 50 52 55 55 54 55 57 56 53 51 51 51 52 51 51 52 51 51 52 52 51 49 45 43 42 43 44 45 46 46 47 47
52 51 49 46 41 38 36 35 35 35 34 34 35 35 33 31 31 32 34 35 36 34 33 33 33 34 36 39 41 42 43 42 42 43 44 44 44 45 47 49 47 44 44 45 45 44 43 42 42 44 47 49 50 51 50 48 46 48 53 55 56 56 53 49 45 42 44 47 49 50 51 52 54 54 54 52 49 46 45 43 43 43 43 44 45 46
50 48 45 42 39 37 35 33 33 33 33 34 35 34 32 32 32 33 34 34 37 37 34 32 32 36 39 40 41 42 42 43 43 43 43 44 45 44 44 46 46 43 43 43 43 43 42 42 43 47 51 51 51 48 44 42 40 44 52 54 55 58 55 50 44 36 36 42 47 48 48 49 50 51 53 55 54 53 51 49 48 47 47 47 48 48
49 46 42 39 37 36 34 31 29 29 31 33 34 33 31 31 33 36 37 36 35 36 38 37 34 36 40 41 41 43 43 43 44 43 43 44 45 45 43 42 42 42 42 41 41 41 41 42 43 48 51 52 52 48 41 40 38 41 49 51 53 57 56 51 44 35 34 40 44 45 45 43 42 43 47 51 53 54 55 55 54 53 53 53 54 55
46 42 39 36 33 32 30 30 28 28 29 29 30 31 30 29 32 37 40 40 38 36 38 38 35 36 40 41 42 43 43 44 45 45 44 43 44 44 43 40 39 40 40 40 39 39 41 43 45 48 51 52 54 51 47 45 40 37 43 48 49 52 51 47 40 36 39 42 41 41 41 40 40 42 45 48 51 53 55 56 56 56 56 56 57 57
43 40 37 33 31 31 31 31 28 28 29 26 25 28 30 30 32 36 41 43 42 40 39 37 36 39 42 43 43 43 43 43 44 44 44 43 43 43 41 39 38 38 39 39 40 41 43 45 46 48 50 51 52 51 49 48 44 39 41 46 48 47 45 42 37 37 43 44 40 41 44 45 47 48 49 50 50 51 52 53 55 56 57 58 58 56
41 40 39 34 33 35 35 33 31 29 28 25 24 29 33 35 35 36 41 42 41 41 41 40 40 42 43 43 43 43 44 43 41 42 43 43 42 41 39 38 38 38 39 40 41 43 45 46 46 47 48 48 50 49 47 47 46 44 43 44 46 44 41 40 37 36 40 40 39 42 44 46 49 49 50 50 49 48 48 50 52 54 55 56 55 53
39 41 40 35 35 38 38 35 34 33 31 29 31 33 35 37 37 37 39 41 40 39 41 43 45 44 43 42 41 41 43 43 41 40 41 42 41 40 39 38 38 39 40 41 43 44 45 46 46 46 46 47 47 46 45 45 46 45 43 42 44 43 40 39 39 37 36 34 35 38 40 43 46 47 48 48 47 46 47 48 50 51 52 53 53 52
40 40 38 34 33 37 39 38 37 37 35 35 38 38 36 36 38 39 42 43 42 39 41 44 45 44 44 44 42 41 41 42 42 40 39 40 40 40 39 38 39 41 42 43 43 45 46 46 46 46 47 47 46 45 45 46 45 45 42 41 43 43 40 38 38 38 35 33 34 37 39 42 44 46 47 47 47 47 47 48 49 50 52 53 52 50
43 41 40 39 37 36 38 39 39 40 41 41 42 42 40 39 40 42 45 46 45 43 42 44 45 46 45 45 45 44 41 41 43 41 39 38 39 39 38 38 40 42 43 43 44 46 47 47 48 49 49 48 47 47 46 45 45 47 45 43 43 43 40 38 37 36 36 35 37 40 42 44 45 46 47 49 50 49 48 47 46 47 49 50 49 48
44 42 41 42 42 41 39 39 41 42 43 44 45 44 44 43 44 44 45 47 48 48 47 46 46 47 46 45 46 46 42 40 40 40 39 38 37 38 38 39 41 43 44 44 46 48 49 50 52 53 52 51 50 50 47 43 43 47 48 47 46 44 42 42 40 38 38 38 39 42 43 44 44 45 45 46 47 48 47 45 43 44 45 45 46 46
44 43 43 43 44 44 42 41 41 41 43 45 45 45 45 45 46 46 47 47 49 50 50 49 49 49 47 46 46 46 44 42 39 39 39 38 37 38 39 40 43 45 45 46 48 51 52 53 55 55 54 53 52 52 50 45 43 47 49 49 49 47 45 44 43 42 43 42 43 44 45 46 46 47 46 46 46 46 46 46 44 43 43 44 45 46
45 45 45 45 46 45 43 43 43 42 43 44 45 45 46 45 45 47 48 48 49 50 51 51 51 50 49 48 47 46 45 43 41 40 40 39 38 38 40 42 44 47 47 48 52 54 55 56 58 58 56 54 53 53 52 48 46 48 50 50 51 49 47 45 43 43 44 45 45 46 48 49 50 50 50 51 51 50 49 48 47 45 45 46 48 50
46 46 46 47 48 48 47 47 46 44 43 44 45 45 45 45 45 45 47 49 49 50 50 50 50 50 50 49 49 48 47 45 43 42 41 40 39 39 41 43 46 48 49 51 55 57 57 59 59 59 57 54 53 54 53 50 49 50 51 51 51 50 49 47 45 44 44 44 43 44 46 48 50 52 53 53 54 55 55 54 52 49 48 50 52 54
47 48 48 49 50 50 49 49 49 47 45 45 46 45 43 44 45 45 46 48 49 49 49 49 49 49 49 49 49 48 47 45 45 43 42 42 41 41 43 45 47 49 50 52 57 60 60 60 60 60 59 56 54 54 54 51 51 53 54 54 53 52 52 50 48 47 48 47 46 47 47 48 51 53 54 54 55 56 57 57 57 55 53 54 55 56
48 50 51 51 51 51 52 53 52 51 47 46 47 45 41 42 46 47 47 48 49 49 49 49 49 49 49 49 48 48 47 45 45 44 44 43 43 43 44 46 48 50 51 53 59 63 63 62 62 62 61 58 56 56 56 54 54 56 58 57 56 56 56 54 51 50 51 52 54 55 54 53 53 54 56 58 58 57 57 57 57 57 57 57 57 58
51 53 53 52 52 53 55 56 56 54 50 47 48 47 42 41 44 48 47 47 48 49 49 49 49 49 49 48 48 47 46 46 46 45 45 45 44 44 46 48 50 52 54 56 60 65 67 66 65 64 63 61 59 58 59 59 59 60 62 62 61 60 60 58 54 53 54 55 57 59 59 58 57 56 56 58 59 60 60 59 58 58 59 59 59 59
54 56 55 53 54 55 56 56 57 56 52 49 47 46 44 43 43 44 46 46 46 47 47 49 49 49 49 48 47 47 47 46 46 46 46 46 45 45 46 49 51 53 56 58 61 67 69 68 67 67 66 63 61 60 62 63 63 64 65 65 64 63 62 60 58 56 57 57 58 59 60 60 60 58 56 56 57 59 61 61 60 59 59 60 60 60
57 58 57 57 57 59 60 59 58 55 52 50 48 47 46 45 44 43 44 45 46 46 47 49 49 49 49 47 47 47 47 47 47 47 48 47 47 46 47 49 52 55 57 59 62 66 70 71 70 70 69 67 65 63 63 64 66 66 67 68 67 65 64 63 62 61 60 60 61 62 62 63 63 63 62 61 60 60 61 61 61 60 60 60 61 61
60 60 61 61 61 61 62 61 58 55 51 49 48 48 47 46 45 44 43 44 46 48 49 50 50 50 50 48 48 48 48 48 48 49 48 48 49 48 48 50 53 56 58 60 62 66 71 73 72 72 72 71 68 67 65 65 66 67 68 69 69 68 67 66 64 64 64 64 64 65 65 66 67 68 68 69 68 66 65 65 64 63 63 63 63 63
62 62 63 63 63 62 61 59 56 54 51 48 47 47 48 47 47 46 45 45 47 49 50 51 52 52 51 50 49 49 49 49 50 49 49 49 50 50 49 50 52 56 59 61 63 66 71 75 75 74 75 74 73 71 69 68 68 68 68 69 69 70 71 70 67 65 64 64 65 67 68 68 68 68 69 70 71 71 71 72 72 71 70 70 69 69
64 64 64 65 64 63 61 57 54 53 51 50 49 49 48 48 48 47 47 47 48 50 51 53 53 53 53 52 51 51 51 50 50 49 49 50 51 51 50 51 52 55 59 61 63 66 70 75 77 76 76 76 76 75 73 72 71 71 71 71 70 71 72 73 73 70 67 65 65 66 68 70 70 70 69 69 70 70 71 72 72 73 74 75 75 76
65 65 66 67 66 63 61 58 55 52 50 50 51 51 51 51 50 49 48 48 49 50 52 53 55 55 55 54 53 53 53 52 52 51 50 51 52 52 52 52 52 54 57 61 64 66 69 74 79 80 78 77 78 78 77 76 74 73 74 74 74 73 73 74 75 76 74 72 70 68 69 70 71 72 73 73 73 73 72 72 71 71 72 73 74 75
65 65 66 67 66 64 61 58 55 52 49 49 50 52 53 54 53 52 51 51 51 51 52 53 55 56 56 56 55 55 54 54 55 54 53 53 53 53 53 53 53 54 56 59 63 66 69 72 77 81 81 79 78 78 79 79 78 76 76 76 77 77 77 77 77 77 78 78 77 75 74 73 73 73 74 75 76 77 77 77 77 77 77 77 77 77
63 64 65 65 64 63 61 57 54 52 50 50 51 53 54 56 56 55 55 54 54 53 53 54 56 56 57 57 57 57 57 57 57 57 56 55 55 55 55 55 55 55 56 58 61 65 69 71 74 78 81 82 81 80 79 80 80 79 79 79 78 79 79 80 80 80 81 81 81 80 80 79 78 78 79 79 79 80 81 81 82 82 83 83 83 83
60 62 63 63 62 60 58 55 53 51 50 51 53 54 56 58 58 58 58 58 58 57 57 57 57 58 58 59 59 59 59 59 59 59 58 58 57 57 57 57 57 57 58 58 60 62 66 70 73 76 78 81 83 83 83 82 82 81 81 81 81 80 80 81 82 83 84 84 85 85 85 85 84 84 84 85 85 85 85 85 85 86 86 87 87 88
57 58 58 58 57 56 54 52 50 48 48 49 52 55 57 59 61 61 61 62 62 61 61 61 61 61 61 61 62 62 61 61 61 61 61 61 61 60 60 60 60 60 60 60 61 62 64 67 71 74 76 79 81 83 84 85 86 85 84 83 83 83 83 83 83 83 84 85 86 87 88 89 89 89 89 90 90 90 90 90 90 90 90 91 91 91
51 52 52 52 52 51 50 48 47 46 45 46 48 51 54 57 60 62 64 64 65 65 65 65 64 64 64 64 64 64 63 63 63 63 64 64 64 64 63 63 62 63 63 63 63 63 64 65 68 71 74 77 79 81 83 85 87 88 88 87 87 87 87 87 86 85 85 86 86 87 88 89 90 91 91 92 92 92 92 92 93 93 94 94 94 94
44 45 46 46 47 47 47 46 46 46 46 46 47 49 51 54 57 60 63 66 67 68 68 68 68 68 67 67 67 66 66 65 65 65 65 66 66 66 66 65 64 65 65 65 66 66 66 66 67 69 71 74 77 79 81 83 85 87 88 90 90 90 90 90 89 89 89 89 89 89 89 90 91 91 92 92 93 93 94 94 94 95 95 96 96 96
Wind_Direction
251 251 252 252 252 253 255 257 257 258 259 259 260 261 262 263 263 263 264 264 262 262 262 261 261 261 261 262 262 260 259 259 258 257 254 250 248 249 249 251 254 255 255 255 252 251 252 251 251 247 239 234 230 221 218 217 214 216 217 210 204 207 215 216 218 225 234 241 245 242 247 260 270 273 274 273 275 272 263 248 246 258 271 277 279 283
251 251 252 252 253 256 257 257 258 258 259 259 260 260 261 262 263 263 264 263 261 261 261 260 260 260 260 260 259 257 255 255 255 253 249 246 243 245 248 248 250 250 247 248 250 249 250 250 250 247 240 235 230 224 222 222 218 216 218 213 207 211 221 226 229 233 237 245 255 255 257 265 271 273 273 272 270 261 251 248 253 263 270 273 278 284
254 254 254 255 257 258 258 258 259 260 260 260 260 260 261 262 262 263 262 261 260 260 260 260 259 259 258 257 257 254 250 249 251 251 248 245 244 245 245 243 246 249 245 244 248 247 244 245 247 247 242 236 230 227 226 226 224 221 219 217 214 218 227 233 237 237 240 248 255 257 262 266 269 272 271 267 263 247 239 249 257 263 267 272 280 286
256 256 257 258 259 259 259 260 261 261 261 261 261 262 262 262 262 264 262 260 260 260 259 259 257 257 257 255 254 251 247 246 248 248 248 245 243 242 242 241 241 245 246 245 245 243 239 240 244 245 242 236 230 228 229 228 227 226 224 221 219 223 234 241 243 243 245 247 249 255 262 263 263 266 265 261 255 239 235 248 255 261 269 276 282 288
256 256 258 259 258 259 261 262 263 264 264 264 264 264 264 264 263 264 263 262 261 259 258 257 255 254 254 253 252 251 246 245 245 244 246 246 242 240 241 240 235 237 244 245 240 239 241 241 241 243 242 237 231 228 229 230 230 230 229 226 222 223 232 241 243 246 246 245 249 256 260 260 259 261 261 255 244 236 240 248 252 261 271 277 283 290
257 257 259 259 260 262 264 265 266 268 268 267 268 267 266 266 266 265 264 262 260 258 256 255 254 252 252 252 251 251 247 245 245 243 243 246 246 242 240 239 236 232 238 242 238 236 241 243 242 241 240 237 234 230 230 233 234 236 238 238 232 227 230 236 239 243 245 245 248 251 254 256 257 258 257 248 236 236 244 250 254 264 271 275 282 289
258 259 260 261 263 265 266 267 269 270 271 271 270 270 270 269 268 266 264 261 259 257 255 252 251 249 249 251 250 249 248 245 246 245 242 243 247 246 240 238 238 232 234 239 236 234 238 241 239 237 237 238 236 234 234 237 239 243 248 249 244 236 233 234 237 241 241 240 243 246 251 256 256 254 251 245 238 240 247 252 258 266 269 273 280 285
261 261 262 264 266 267 268 269 271 272 274 273 273 274 274 271 268 266 263 260 257 256 254 250 248 247 247 249 249 249 248 247 248 247 244 242 244 247 243 239 239 235 235 236 231 229 235 240 239 235 234 236 236 235 238 243 247 247 246 246 243 239 235 234 238 242 240 238 242 248 251 251 250 248 245 241 238 241 250 255 259 264 268 272 277 281
263 264 265 266 267 269 270 271 272 275 276 276 276 277 274 271 268 264 261 260 257 254 251 247 245 245 245 247 250 250 248 247 248 248 247 244 243 247 246 242 240 236 234 234 232 233 238 244 243 236 232 234 234 234 237 243 240 233 234 241 243 242 238 237 237 239 241 239 239 244 246 243 241 241 240 239 239 244 251 255 257 263 267 271 275 278
264 265 266 268 269 271 272 273 275 278 279 278 279 277 273 270 267 263 260 258 255 252 248 245 244 243 242 242 246 248 247 247 248 249 250 249 246 246 246 244 243 238 231 233 238 238 236 239 240 234 229 226 221 220 220 224 226 221 220 231 239 240 237 234 232 233 237 235 231 235 240 238 237 238 241 243 243 246 250 253 257 262 266 270 275 278
264 265 268 270 271 272 274 276 279 280 280 280 279 276 272 268 264 261 258 255 253 252 246 242 241 241 241 241 244 246 249 250 252 252 252 253 249 247 248 246 245 241 231 228 233 233 229 231 234 228 221 211 200 207 212 214 219 213 210 227 237 236 235 232 228 228 232 231 227 231 235 235 236 240 244 246 245 246 248 251 256 260 265 272 277 278
265 267 270 271 272 274 276 278 280 282 282 281 278 274 269 266 262 259 256 253 252 250 245 240 239 240 239 241 243 245 248 252 254 251 252 255 253 250 250 249 247 244 235 227 227 231 230 226 226 219 210 204 199 208 212 210 212 205 201 223 235 231 233 235 230 227 228 228 225 228 232 234 236 240 245 247 244 242 243 249 255 260 269 277 278 276
267 269 270 272 273 275 277 279 282 284 283 280 276 271 267 264 261 257 255 253 250 247 245 239 237 237 238 240 243 245 247 251 255 251 247 253 256 251 247 248 248 240 233 228 225 230 228 219 221 217 206 202 200 208 212 207 208 204 198 211 224 222 226 231 228 225 226 226 224 226 231 235 237 239 243 245 241 239 243 250 257 264 273 278 276 274
268 268 270 272 274 276 279 281 284 285 282 279 274 269 265 262 259 256 252 251 249 247 244 239 236 236 239 241 242 244 246 246 250 248 240 240 250 251 248 251 250 232 224 228 223 222 221 217 222 219 208 203 200 205 211 208 207 207 202 204 209 214 221 224 223 223 225 225 223 224 228 232 236 239 240 240 239 241 246 252 258 266 274 277 274 275
267 268 270 272 274 277 280 282 285 285 281 276 269 265 263 261 258 255 251 249 248 246 243 239 236 236 240 243 240 239 242 240 239 240 234 229 237 246 248 250 247 225 216 226 225 221 220 222 226 220 210 206 202 203 209 208 208 210 209 207 206 212 219 221 221 223 224 224 223 224 227 231 235 237 240 241 240 241 246 252 260 267 273 275 275 276
266 269 271 273 275 278 281 284 286 283 276 268 264 263 261 258 256 253 249 246 245 243 240 237 235 236 239 243 241 237 235 234 236 238 234 231 234 238 238 235 233 226 219 227 232 229 224 224 228 221 211 208 204 204 208 208 208 211 212 212 212 215 218 216 217 222 224 223 224 226 230 234 236 238 241 242 241 241 246 253 260 265 271 272 273 272
266 269 272 275 277 279 282 285 283 276 269 265 262 261 259 256 254 253 249 246 244 242 238 234 233 235 235 237 241 240 234 230 234 236 233 234 239 241 241 240 241 239 229 224 227 228 223 220 224 222 213 209 207 205 207 208 210 212 212 214 217 221 221 218 218 223 225 224 224 227 232 236 238 240 241 241 242 244 248 253 255 260 269 270 269 269
267 270 273 276 278 281 284 283 276 268 265 263 260 258 257 256 254 252 249 246 245 242 239 235 231 230 232 232 237 241 236 228 227 231 231 231 236 240 241 246 250 246 237 229 224 223 221 219 222 220 213 211 209 206 207 208 210 212 213 215 219 223 223 221 220 221 224 225 225 227 233 237 239 241 243 244 244 246 250 254 255 259 266 267 268 271
268 269 272 275 279 282 283 277 270 266 263 261 259 256 255 255 253 251 248 245 243 241 239 237 233 230 232 232 235 240 238 229 225 229 232 229 230 232 225 227 241 239 235 234 229 225 223 221 221 218 212 212 210 208 208 208 209 212 214 217 220 223 224 223 221 222 223 224 225 227 232 236 239 242 246 247 247 247 250 256 259 261 265 266 268 271
266 268 272 275 279 282 280 272 266 263 261 259 259 257 253 251 249 247 246 244 243 241 238 237 234 230 230 231 234 238 237 230 225 227 229 225 224 223 215 214 226 229 226 230 230 227 225 223 220 216 213 213 212 210 209 209 211 212 214 217 221 223 225 225 224 224 223 222 224 229 231 235 239 243 248 251 251 249 251 255 258 261 264 265 267 270
265 268 272 276 281 281 274 267 262 259 259 259 259 256 253 248 242 240 238 238 242 241 239 237 232 228 228 229 231 235 234 226 222 224 226 224 221 221 218 215 219 225 226 228 229 228 225 221 217 212 212 212 211 211 211 212 214 214 214 217 221 223 224 224 225 226 225 223 225 229 232 234 238 243 248 252 253 253 253 254 255 257 260 264 267 270
266 270 274 278 280 276 268 264 262 260 259 259 257 254 251 245 239 235 227 224 231 236 236 235 231 227 228 228 229 231 230 223 219 222 226 227 226 225 223 221 221 224 227 227 227 226 223 219 211 206 208 208 206 209 213 215 216 216 215 218 221 222 223 224 225 228 228 228 228 231 233 235 239 243 247 251 255 256 255 255 255 256 259 264 268 270
267 271 276 278 275 269 266 264 262 261 259 257 254 250 249 243 234 228 221 217 222 229 235 236 231 227 227 228 230 230 229 227 226 227 230 230 230 228 225 223 223 225 225 225 223 221 219 215 207 200 202 204 203 205 209 214 217 219 222 225 224 223 223 224 226 230 232 231 232 233 235 238 241 245 247 251 254 255 255 256 257 259 261 264 267 268
268 272 275 276 269 265 264 261 259 260 259 256 252 247 245 240 230 224 221 221 223 225 233 239 236 232 231 231 234 234 232 231 231 233 234 234 233 230 227 224 224 225 223 221 220 217 215 211 203 197 198 202 204 203 203 206 211 219 226 229 228 225 225 225 227 230 232 232 232 234 237 239 242 245 248 251 252 254 255 257 258 260 262 264 265 267
267 271 273 272 266 262 260 257 257 260 258 252 249 246 242 234 225 219 219 224 226 224 228 234 236 235 234 233 235 237 235 233 233 235 236 237 236 234 231 228 226 224 221 220 219 216 213 209 203 198 198 201 202 202 201 201 204 214 222 225 228 227 226 227 227 227 231 233 233 233 236 240 244 248 251 252 253 255 257 259 260 262 264 265 266 267
268 272 270 266 264 261 256 253 254 259 259 253 247 243 239 232 225 219 215 219 223 224 227 230 233 236 237 236 236 237 236 234 234 235 235 237 236 236 235 232 229 225 221 219 218 216 214 210 205 201 200 201 201 199 200 201 204 214 219 221 226 227 226 228 227 224 228 233 233 232 234 239 243 246 249 250 252 254 256 258 261 263 264 265 267 269
269 268 263 259 260 258 253 251 248 246 249 251 248 241 234 231 230 224 219 218 219 222 227 229 233 238 240 239 239 238 238 236 236 235 235 236 236 236 235 233 231 227 221 218 216 215 214 211 206 203 202 203 203 201 203 203 203 210 215 218 224 225 224 226 224 222 226 229 231 233 234 234 234 237 243 248 251 253 255 256 259 261 264 265 267 269
264 261 255 252 251 249 246 246 244 239 238 241 245 240 228 226 230 226 221 220 220 223 226 227 230 235 238 240 240 239 238 238 237 236 235 236 236 236 234 231 229 226 221 216 213 212 212 210 206 203 202 203 204 204 207 206 204 206 209 213 217 217 218 218 215 221 229 230 231 233 233 234 236 239 244 250 253 255 256 257 258 260 262 264 267 269
258 253 251 247 243 241 240 239 237 235 232 228 231 235 228 223 225 224 221 221 222 225 227 226 227 232 235 238 240 239 238 238 238 237 235 235 235 235 233 231 228 224 219 215 211 210 210 208 205 202 201 203 203 204 204 203 203 205 208 211 212 211 212 211 209 221 233 234 236 239 238 239 241 243 247 250 252 254 255 256 257 259 261 263 266 268
249 246 246 242 238 237 236 235 233 230 227 222 222 231 232 226 224 223 221 220 220 224 227 227 228 232 236 238 239 240 239 237 237 237 236 235 235 234 232 230 226 221 217 213 210 208 207 206 203 200 199 199 200 199 198 198 200 203 205 211 213 211 212 211 212 222 230 232 237 242 243 243 244 247 249 251 252 253 253 255 256 258 261 263 264 266
240 239 238 233 233 236 236 235 232 227 225 226 225 226 228 226 223 223 222 219 217 221 225 227 229 232 236 237 238 241 241 238 237 236 235 235 235 233 231 228 223 219 215 212 208 206 205 203 199 196 195 196 195 192 191 194 198 200 200 206 209 210 212 213 215 222 226 226 231 236 241 244 246 248 249 251 253 255 256 257 257 258 259 260 261 262
238 235 232 226 226 233 236 235 233 226 223 228 230 228 225 223 222 223 223 221 217 219 223 226 227 230 233 235 236 239 241 239 237 236 235 235 235 233 229 225 222 218 214 210 205 203 202 200 195 192 192 194 193 191 190 194 199 201 201 202 204 207 211 212 214 220 223 226 230 234 239 243 247 249 251 252 254 255 258 259 259 258 258 259 260 260
239 236 234 229 226 229 234 235 234 230 225 226 231 231 228 226 224 224 224 223 221 220 223 226 227 228 231 234 235 237 239 240 238 237 236 235 234 232 228 223 220 218 213 207 203 200 199 196 193 192 194 195 195 193 192 195 203 206 207 205 203 205 209 212 215 219 222 227 232 235 239 243 246 249 250 251 252 254 255 256 255 255 256 258 259 260
240 238 236 231 227 228 233 234 234 234 231 229 231 232 232 231 230 227 226 225 224 224 224 226 228 229 230 232 234 234 237 239 240 238 237 235 233 231 227 222 219 218 213 205 200 198 197 196 194 194 196 198 199 198 196 197 203 207 210 210 207 207 209 212 216 220 224 230 235 239 243 246 249 251 250 249 250 252 253 252 252 253 253 254 255 257
241 238 234 230 227 227 230 233 234 234 235 234 232 231 232 233 233 231 229 228 227 226 227 228 229 231 231 232 234 235 235 237 239 239 237 235 232 228 225 221 218 217 213 204 199 197 197 197 196 197 199 201 202 202 201 202 204 207 210 213 213 212 212 214 217 220 225 231 236 241 244 247 250 252 252 251 251 251 252 253 254 255 253 252 252 253
239 236 230 226 226 227 229 233 235 235 236 237 236 233 231 234 235 233 231 230 229 228 229 230 231 232 233 233 234 236 236 236 238 239 237 236 232 227 223 220 217 217 214 205 199 198 198 198 199 200 202 205 206 206 206 207 209 210 210 212 214 215 215 217 219 221 224 229 233 237 242 245 247 249 250 252 252 252 252 254 256 257 255 252 252 254
233 231 227 225 226 229 231 234 237 237 236 238 241 239 234 232 235 235 233 232 231 230 230 232 233 233 234 234 234 236 237 237 237 238 237 236 233 227 222 219 217 216 215 208 202 200 201 201 202 203 204 207 209 209 210 211 214 214 213 212 213 214 215 216 219 223 226 230 234 237 240 244 248 249 251 252 253 254 255 256 257 257 256 254 255 257
228 228 227 225 224 228 231 234 236 238 237 237 241 244 240 233 233 235 235 233 232 231 231 232 233 234 235 235 235 235 236 238 237 237 237 236 234 228 223 219 216 216 215 211 205 203 203 203 204 204 206 209 210 211 212 213 215 216 216 214 213 214 214 215 219 225 229 232 236 238 241 244 247 250 252 253 254 255 256 257 258 258 258 258 259 259
226 228 229 227 225 226 230 234 237 238 238 238 239 242 244 239 235 234 235 235 234 233 233 233 234 235 236 236 237 236 236 237 238 237 236 236 234 231 225 220 217 215 215 213 208 206 205 205 205 206 207 209 211 212 213 213 215 217 218 217 216 216 216 217 220 224 227 230 233 236 238 241 244 247 251 253 254 255 255 256 257 258 259 260 261 261
224 228 230 230 228 228 230 233 237 238 238 239 240 241 244 244 241 237 236 237 237 237 237 237 237 237 237 237 238 237 237 237 238 238 237 236 235 232 228 223 219 216 216 214 211 208 206 206 207 208 208 210 212 213 215 216 217 219 220 219 218 218 219 220 222 226 228 231 232 233 235 238 240 243 246 249 251 253 255 256 257 258 258 260 260 261
223 226 229 230 230 230 231 233 236 238 239 240 240 241 242 244 244 242 238 236 237 238 239 239 239 239 239 238 239 239 238 237 238 238 238 237 235 233 230 226 222 218 217 216 214 211 209 208 209 210 211 211 212 214 216 218 219 221 222 222 221 221 222 223 225 228 230 233 235 236 237 238 239 241 243 246 248 252 255 257 257 257 257 258 259 260
224 226 228 230 231 232 233 234 236 239 241 242 241 241 242 243 244 244 241 237 236 236 238 239 240 240 239 238 239 240 239 237 237 237 238 238 237 235 232 229 226 222 219 217 216 213 212 211 211 212 213 213 214 215 218 220 221 223 224 225 224 223 224 225 228 231 233 235 237 238 240 242 243 244 246 248 250 252 254 256 257 257 257 257 258 259
225 228 230 232 234 235 237 238 238 239 241 244 244 243 243 243 243 244 243 240 237 236 237 239 240 240 239 238 237 239 240 239 238 237 238 239 239 237 235 232 229 226 223 220 217 216 214 213 213 214 215 216 216 217 219 221 223 224 225 226 227 226 226 226 228 231 234 237 239 240 242 243 245 247 248 250 252 253 255 256 257 258 258 259 259 260
224 227 231 234 237 238 240 241 241 241 241 243 245 245 244 244 244 244 244 243 241 239 238 239 240 241 240 239 238 238 239 240 240 239 239 240 241 240 237 235 233 230 227 223 221 218 217 216 216 216 217 218 219 220 221 223 224 226 227 227 228 229 229 229 229 230 232 235 238 241 243 244 245 247 248 249 251 253 255 257 258 259 260 261 261 262
224 226 230 234 238 240 241 242 243 242 240 240 242 244 245 245 245 244 243 243 243 242 240 240 241 242 242 241 240 239 239 239 239 239 238 239 240 241 240 238 236 233 231 228 225 222 219 218 218 218 219 220 221 223 224 225 226 227 228 229 229 230 231 231 231 232 233 234 235 237 240 242 244 246 247 248 249 250 252 254 256 258 259 261 262 263
226 228 231 235 239 242 243 244 245 244 242 239 239 241 243 245 245 245 245 244 243 243 242 242 242 242 243 242 242 241 240 240 240 239 238 237 238 239 240 239 238 236 235 232 230 227 224 222 221 221 221 221 223 224 226 227 228 229 230 231 231 232 232 232 233 234 235 236 237 238 239 240 242 244 246 247 249 250 251 253 254 256 258 259 261 262
227 230 233 237 241 244 245 247 247 246 244 242 240 240 241 243 244 245 245 245 244 243 243 243 243 243 243 243 242 242 241 241 240 240 239 237 237 237 238 239 239 238 237 236 234 232 229 226 225 224 224 224 224 225 227 228 230 231 232 233 234 234 235 235 235 236 236 237 238 240 241 242 243 244 245 247 248 250 251 253 255 256 258 259 260 262
229 232 235 239 243 246 249 251 252 250 247 245 243 242 242 243 244 245 245 246 246 245 243 243 243 243 243 243 243 242 241 240 240 240 239 238 238 237 237 237 237 237 238 238 237 236 235 232 230 228 227 227 227 227 228 229 230 232 233 235 236 236 237 237 238 238 239 239 240 241 242 243 245 246 248 249 250 251 252 254 255 256 258 259 260 261
232 235 238 241 245 248 251 254 255 255 252 249 246 244 244 244 244 245 246 246 246 246 245 244 243 243 243 242 242 242 241 240 240 240 239 238 237 237 236 236 236 236 237 237 238 238 238 237 235 233 232 231 230 230 230 231 232 232 234 235 236 237 238 239 239 240 241 242 242 243 244 245 247 248 250 251 252 253 254 255 256 257 259 260 261 263
235 238 242 245 248 251 254 257 259 259 257 254 251 248 247 246 246 246 247 247 247 247 247 246 246 245 244 243 243 242 241 240 240 239 240 239 238 237 236 235 236 236 236 237 237 237 238 239 239 238 237 236 235 234 234 234 234 234 235 236 237 238 239 239 240 241 242 243 244 245 246 247 249 250 252 253 254 255 256 257 258 260 261 262 263 265
241 244 247 249 251 254 256 258 259 258 258 256 254 251 250 249 248 247 247 248 248 248 248 248 248 247 247 246 245 245 244 242 241 240 240 240 240 239 237 236 235 236 237 237 237 237 237 238 240 240 240 240 239 238 238 237 237 237 237 238 239 240 241 241 242 242 243 244 245 246 247 248 249 250 252 253 255 256 257 259 260 261 263 264 265 266
Height
10609 10610 10612 10612 10611 10612 10615 10617 10616 10618 10621 10619 10620 10622 10621 10624 10623 10622 10627 10631 10631 10629 10627 10630 10629 10629 10630 10630 10634 10638 10638 10637 10639 10645 10653 10658 10659 10658 10660 10661 10661 10662 10665 10665 10665 10668 10669 10671 10675 10678 10683 10687 10692 10697 10700 10701 10704 10709 10713 10718 10722 10725 10728 10730 10731 10733 10735 10736 10737 10738 10736 10734 10734 10734 10735 10735 10735 10735 10734 10733 10728 10722 10721 10721 10721 10720
10604 10607 10607 10605 10606 10609 10611 10611 10611 10614 10614 10613 10615 10616 10617 10619 10615 10615 10623 10623 10623 10623 10620 10621 10623 10622 10624 10625 10626 10631 10633 10630 10631 10637 10642 10645 10649 10650 10653 10656 10656 10656 10659 10660 10661 10664 10666 10668 10671 10675 10680 10685 10690 10693 10694 10697 10701 10705 10709 10714 10719 10721 10723 10725 10728 10730 10731 10733 10734 10733 10730 10730 10730 10730 10731 10731 10731 10733 10733 10729 10722 10717 10717 10717 10716 10716
10599 10601 10600 10600 10603 10604 10604 10604 10606 10608 10607 10607 10610 10610 10612 10613 10608 10611 10616 10614 10615 10617 10614 10615 10617 10616 10618 10619 10619 10623 10626 10624 10624 10629 10632 10636 10640 10643 10646 10651 10652 10650 10651 10654 10657 10660 10663 10665 10669 10673 10677 10682 10687 10689 10690 10693 10696 10701 10706 10710 10715 10718 10719 10721 10725 10726 10727 10729 10729 10728 10725 10725 10726 10726 10726 10726 10726 10728 10727 10722 10716 10713 10713 10713 10712 10711
10594 10594 10595 10597 10599 10597 10597 10599 10601 10601 10601 10602 10603 10604 10606 10605 10605 10607 10605 10606 10610 10610 10607 10609 10610 10610 10611 10612 10612 10616 10619 10618 10619 10622 10623 10628 10633 10635 10638 10645 10648 10644 10642 10648 10653 10656 10659 10662 10667 10671 10675 10680 10683 10684 10685 10688 10693 10698 10703 10708 10714 10718 10718 10719 10722 10721 10722 10724 10723 10722 10719 10719 10721 10722 10722 10722 10721 10721 10718 10714 10711 10709 10709 10708 10708 10707
10587 10589 10592 10591 10591 10591 10593 10595 10594 10594 10595 10596 10597 10598 10599 10597 10600 10602 10597 10600 10604 10601 10601 10602 10603 10605 10605 10605 10606 10608 10612 10613 10613 10615 10617 10620 10625 10629 10633 10638 10641 10640 10639 10643 10648 10652 10655 10659 10664 10669 10673 10677 10679 10680 10681 10685 10692 10697 10701 10707 10714 10720 10720 10719 10720 10716 10716 10719 10718 10715 10712 10711 10714 10716 10717 10717 10715 10714 10711 10707 10706 10705 10704 10703 10703 10703
10581 10585 10586 10583 10586 10588 10588 10589 10589 10588 10588 10590 10591 10591 10592 10591 10593 10595 10591 10593 10595 10591 10594 10596 10597 10600 10599 10600 10602 10602 10605 10607 10606 10609 10612 10614 10617 10623 10628 10632 10635 10639 10639 10640 10645 10649 10652 10657 10663 10666 10670 10673 10675 10678 10681 10687 10693 10698 10702 10707 10713 10719 10718 10716 10715 10712 10712 10714 10713 10710 10706 10705 10707 10710 10711 10711 10710 10708 10704 10702 10702 10701 10700 10699 10699 10699
10576 10581 10579 10578 10582 10582 10582 10583 10583 10583 10583 10583 10584 10585 10586 10586 10587 10587 10584 10585 10587 10583 10587 10592 10591 10592 10594 10595 10595 10594 10598 10601 10600 10603 10608 10610 10611 10616 10623 10626 10630 10637 10638 10639 10644 10648 10650 10654 10660 10663 10667 10670 10674 10679 10685 10690 10694 10699 10703 10704 10706 10709 10710 10709 10708 10707 10708 10707 10705 10703 10700 10699 10701 10703 10706 10705 10704 10702 10698 10697 10697 10696 10695 10695 10695 10695
10571 10574 10574 10574 10576 10576 10576 10578 10576 10578 10577 10576 10578 10580 10579 10578 10579 10579 10576 10577 10579 10577 10582 10586 10584 10586 10590 10589 10587 10589 10593 10595 10595 10598 10602 10606 10607 10609 10616 10621 10625 10632 10634 10636 10642 10644 10646 10651 10656 10661 10666 10669 10675 10682 10687 10691 10695 10700 10700 10697 10693 10695 10701 10704 10703 10702 10700 10698 10699 10696 10692 10693 10696 10697 10698 10697 10695 10694 10691 10691 10692 10691 10691 10691 10691 10692
10566 10567 10568 10569 10570 10570 10571 10571 10571 10573 10571 10569 10574 10574 10569 10569 10571 10570 10569 10571 10571 10571 10576 10578 10578 10582 10586 10584 10582 10584 10587 10589 10590 10592 10596 10601 10604 10606 10611 10616 10620 10626 10631 10633 10636 10639 10643 10648 10652 10659 10665 10671 10678 10685 10688 10691 10693 10694 10693 10689 10684 10688 10695 10699 10700 10697 10688 10688 10693 10688 10682 10687 10691 10689 10689 10688 10688 10687 10685 10686 10687 10687 10687 10687 10688 10689
10562 10561 10562 10564 10564 10564 10564 10563 10566 10567 10564 10564 10568 10565 10561 10563 10563 10562 10564 10564 10562 10566 10571 10572 10572 10577 10580 10579 10576 10577 10582 10585 10586 10589 10593 10597 10601 10603 10605 10610 10614 10621 10629 10631 10632 10636 10640 10645 10650 10657 10666 10674 10682 10686 10686 10684 10681 10683 10688 10685 10679 10681 10685 10688 10690 10684 10675 10680 10687 10681 10677 10682 10685 10683 10682 10682 10682 10682 10682 10683 10683 10683 10683 10684 10684 10685
10557 10555 10556 10559 10558 10558 10558 10557 10561 10560 10557 10558 10560 10556 10555 10556 10555 10556 10558 10556 10557 10562 10564 10566 10567 10571 10575 10573 10571 10575 10580 10581 10583 10589 10591 10592 10596 10599 10601 10605 10609 10617 10626 10630 10631 10632 10635 10641 10647 10655 10665 10672 10677 10677 10673 10667 10664 10671 10679 10675 10668 10669 10672 10676 10679 10674 10672 10678 10680 10678 10678 10679 10679 10678 10677 10678 10678 10678 10679 10680 10680 10680 10680 10680 10681 10681
10549 10549 10551 10553 10551 10551 10552 10551 10554 10553 10550 10552 10552 10549 10549 10549 10549 10551 10550 10551 10554 10556 10557 10561 10563 10566 10569 10566 10567 10574 10578 10578 10582 10587 10588 10588 10592 10595 10597 10601 10605 10614 10621 10625 10627 10627 10629 10636 10641 10648 10657 10661 10661 10656 10649 10648 10650 10656 10660 10654 10649 10651 10659 10667 10670 10670 10672 10675 10675 10675 10675 10675 10675 10675 10674 10674 10674 10674 10676 10676 10676 10677 10677 10677 10677 10677
10543 10544 10545 10546 10545 10546 10545 10545 10547 10546 10544 10545 10545 10544 10544 10543 10543 10545 10545 10546 10548 10549 10552 10557 10559 10561 10562 10560 10566 10575 10577 10577 10580 10583 10584 10585 10588 10590 10593 10597 10603 10610 10613 10616 10621 10623 10625 10630 10633 10639 10645 10646 10644 10637 10633 10638 10643 10645 10645 10641 10638 10640 10649 10659 10663 10665 10668 10669 10670 10671 10671 10671 10671 10671 10671 10670 10669 10670 10672 10673 10673 10674 10674 10674 10673 10674
10537 10536 10538 10540 10539 10539 10539 10539 10540 10539 10538 10539 10539 10539 10539 10537 10538 10539 10540 10541 10543 10545 10548 10551 10555 10557 10556 10558 10568 10574 10573 10573 10575 10577 10579 10581 10584 10586 10588 10594 10599 10605 10609 10611 10616 10619 10621 10624 10627 10633 10635 10634 10632 10629 10629 10636 10639 10639 10637 10635 10634 10636 10645 10653 10657 10659 10662 10663 10665 10665 10666 10667 10666 10666 10666 10665 10665 10667 10669 10670 10670 10671 10671 10670 10670 10670
10529 10529 10532 10533 10533 10534 10533 10532 10533 10533 10532 10533 10533 10533 10533 10532 10532 10533 10535 10538 10539 10541 10544 10548 10551 10553 10553 10559 10567 10568 10568 10569 10571 10573 10576 10579 10583 10584 10586 10592 10598 10604 10609 10611 10612 10613 10616 10620 10622 10625 10626 10625 10625 10624 10626 10631 10632 10632 10632 10632 10634 10636 10641 10649 10652 10654 10656 10657 10659 10660 10661 10661 10660 10662 10662 10661 10663 10664 10665 10666 10667 10667 10667 10666 10666 10666
10523 10522 10524 10526 10528 10529 10527 10526 10528 10527 10526 10526 10527 10528 10528 10526 10527 10528 10530 10534 10534 10537 10541 10544 10546 10549 10553 10558 10561 10562 10565 10568 10569 10571 10573 10576 10579 10581 10585 10591 10596 10603 10609 10609 10608 10609 10613 10618 10616 10616 10618 10618 10619 10620 10622 10624 10623 10624 10628 10632 10635 10635 10638 10645 10648 10649 10651 10653 10654 10655 10655 10655 10656 10658 10658 10658 10660 10661 10662 10663 10663 10663 10662 10661 10661 10661
10518 10517 10516 10519 10521 10522 10521 10520 10522 10521 10520 10520 10522 10523 10522 10521 10522 10523 10527 10529 10530 10533 10537 10540 10543 10546 10550 10553 10555 10556 10560 10564 10567 10568 10570 10573 10575 10578 10584 10589 10593 10599 10603 10603 10604 10606 10611 10615 10611 10609 10612 10614 10615 10618 10619 10619 10619 10621 10627 10631 10633 10632 10635 10640 10642 10644 10646 10648 10650 10650 10651 10652 10653 10654 10654 10654 10656 10657 10658 10659 10659 10659 10658 10657 10657 10658
10514 10512 10510 10513 10514 10515 10516 10514 10515 10516 10515 10516 10517 10517 10517 10517 10519 10520 10523 10525 10526 10530 10533 10535 10540 10543 10545 10549 10551 10551 10554 10560 10563 10564 10566 10570 10571 10574 10583 10590 10593 10596 10599 10599 10599 10601 10604 10606 10605 10606 10609 10608 10611 10615 10616 10617 10619 10622 10627 10629 10629 10629 10632 10636 10638 10640 10642 10644 10646 10646 10647 10648 10649 10650 10650 10650 10651 10653 10654 10654 10655 10655 10654 10653 10653 10654
10509 10507 10505 10507 10508 10509 10510 10508 10509 10511 10510 10511 10511 10513 10514 10514 10516 10517 10519 10521 10523 10526 10528 10532 10536 10540 10543 10546 10546 10546 10549 10555 10559 10560 10562 10566 10568 10570 10578 10585 10588 10589 10591 10591 10590 10591 10594 10596 10599 10604 10604 10603 10607 10612 10615 10617 10620 10622 10625 10626 10626 10627 10630 10633 10635 10637 10639 10641 10642 10643 10643 10644 10646 10646 10646 10646 10647 10649 10650 10651 10651 10651 10650 10650 10650 10650
10502 10501 10501 10502 10502 10503 10504 10503 10505 10505 10505 10506 10507 10508 10510 10511 10514 10515 10516 10519 10521 10522 10525 10529 10533 10538 10541 10542 10542 10542 10545 10550 10555 10557 10559 10562 10564 10565 10568 10573 10576 10578 10579 10579 10580 10583 10586 10590 10597 10602 10603 10603 10607 10612 10616 10621 10622 10622 10623 10623 10624 10626 10629 10631 10634 10635 10636 10638 10639 10639 10640 10641 10643 10643 10642 10641 10643 10645 10647 10647 10648 10648 10647 10646 10646 10646
10495 10496 10497 10498 10497 10497 10498 10499 10499 10500 10500 10501 10503 10504 10506 10508 10511 10512 10514 10517 10518 10520 10523 10525 10530 10535 10537 10538 10539 10539 10541 10546 10550 10552 10554 10557 10558 10559 10560 10562 10564 10566 10568 10570 10573 10577 10581 10586 10594 10600 10601 10603 10608 10614 10619 10622 10623 10623 10623 10623 10623 10624 10626 10630 10632 10633 10634 10636 10637 10637 10637 10638 10639 10640 10639 10638 10639 10641 10643 10643 10644 10643 10642 10642 10642 10642
10489 10491 10492 10494 10493 10491 10492 10494 10495 10496 10497 10497 10498 10500 10501 10504 10507 10509 10512 10514 10515 10517 10518 10520 10525 10530 10530 10532 10533 10534 10537 10541 10544 10546 10548 10549 10551 10553 10555 10555 10558 10560 10561 10564 10568 10572 10576 10582 10589 10595 10597 10601 10606 10611 10616 10619 10621 10623 10624 10623 10622 10622 10625 10628 10629 10630 10632 10634 10635 10634 10635 10635 10635 10635 10635 10635 10636 10638 10639 10638 10639 10638 10638 10638 10638 10638
10485 10486 10486 10489 10489 10486 10488 10490 10490 10492 10493 10493 10494 10496 10498 10501 10504 10506 10508 10510 10512 10514 10515 10517 10521 10523 10523 10524 10526 10528 10531 10534 10536 10537 10538 10541 10544 10547 10549 10551 10553 10555 10557 10559 10562 10566 10571 10576 10584 10591 10594 10595 10595 10598 10604 10610 10618 10624 10625 10622 10621 10622 10624 10625 10627 10629 10630 10632 10632 10631 10632 10632 10631 10630 10630 10631 10632 10633 10633 10633 10634 10634 10635 10635 10635 10635
10480 10481 10481 10483 10484 10484 10485 10486 10486 10487 10488 10489 10490 10492 10495 10499 10501 10503 10505 10507 10509 10511 10512 10514 10517 10518 10518 10519 10521 10522 10524 10527 10529 10531 10532 10535 10538 10541 10544 10546 10548 10551 10553 10555 10557 10560 10565 10571 10577 10582 10583 10582 10583 10588 10593 10599 10609 10618 10622 10622 10621 10622 10623 10623 10626 10628 10628 10628 10628 10627 10627 10626 10626 10626 10626 10626 10627 10627 10628 10628 10629 10630 10631 10631 10631 10631
10474 10476 10476 10477 10478 10480 10482 10482 10482 10483 10484 10485 10486 10489 10492 10495 10497 10500 10502 10504 10506 10508 10510 10511 10513 10514 10513 10515 10516 10516 10518 10521 10523 10525 10528 10530 10532 10535 10538 10541 10543 10546 10548 10551 10554 10557 10562 10566 10571 10574 10574 10576 10581 10587 10591 10596 10604 10611 10616 10619 10619 10619 10620 10620 10624 10627 10625 10622 10620 10620 10622 10623 10625 10625 10623 10622 10623 10623 10624 10625 10625 10625 10626 10627 10627 10627
10470 10472 10473 10473 10473 10475 10477 10479 10480 10480 10480 10481 10484 10486 10488 10491 10493 10496 10498 10500 10502 10505 10506 10507 10509 10509 10508 10509 10511 10511 10514 10516 10518 10520 10523 10525 10527 10530 10533 10536 10539 10542 10544 10547 10551 10554 10558 10561 10565 10569 10571 10574 10579 10584 10589 10595 10602 10608 10613 10616 10615 10614 10616 10618 10622 10624 10618 10612 10612 10616 10620 10623 10624 10623 10619 10618 10619 10620 10620 10620 10620 10621 10621 10622 10622 10622
10466 10467 10468 10470 10471 10471 10472 10474 10476 10476 10477 10478 10481 10483 10485 10488 10490 10492 10494 10496 10499 10501 10501 10503 10505 10504 10502 10503 10505 10507 10510 10512 10514 10516 10518 10520 10523 10525 10529 10532 10535 10538 10540 10544 10547 10550 10553 10556 10560 10563 10567 10571 10575 10580 10585 10590 10597 10603 10608 10610 10609 10611 10615 10618 10620 10617 10608 10605 10610 10615 10618 10618 10618 10617 10614 10613 10614 10614 10614 10615 10615 10615 10616 10616 10617 10618
10462 10463 10463 10467 10469 10468 10467 10469 10470 10472 10474 10477 10479 10480 10482 10485 10487 10488 10489 10492 10495 10496 10497 10499 10500 10498 10497 10497 10499 10502 10505 10507 10509 10511 10513 10516 10518 10521 10524 10527 10530 10534 10537 10540 10543 10545 10547 10550 10555 10559 10563 10567 10572 10577 10581 10586 10592 10597 10599 10600 10602 10608 10612 10615 10615 10608 10601 10604 10609 10610 10610 10610 10610 10610 10609 10609 10609 10609 10608 10609 10609 10610 10610 10611 10612 10613
10458 10458 10459 10462 10464 10463 10463 10464 10466 10468 10471 10474 10476 10476 10478 10480 10482 10483 10485 10488 10491 10492 10493 10494 10493 10491 10491 10493 10495 10498 10500 10502 10505 10507 10509 10512 10514 10517 10520 10524 10527 10530 10533 10536 10538 10540 10542 10546 10551 10555 10560 10565 10569 10573 10577 10581 10585 10588 10591 10593 10598 10603 10607 10608 10606 10600 10598 10602 10605 10603 10603 10604 10605 10605 10604 10604 10603 10603 10603 10603 10604 10605 10606 10607 10607 10608
10452 10452 10453 10456 10457 10457 10458 10460 10462 10464 10466 10469 10471 10472 10473 10475 10476 10479 10481 10483 10486 10488 10488 10488 10488 10488 10488 10490 10492 10494 10496 10498 10501 10503 10505 10508 10510 10513 10516 10520 10523 10526 10529 10531 10533 10536 10539 10543 10547 10552 10557 10560 10564 10568 10572 10575 10576 10579 10584 10588 10592 10597 10599 10600 10598 10594 10595 10600 10601 10599 10599 10599 10599 10599 10598 10598 10598 10598 10598 10599 10600 10601 10601 10602 10603 10603
10444 10445 10446 10449 10451 10452 10453 10455 10457 10459 10461 10463 10465 10466 10468 10470 10472 10473 10475 10477 10481 10483 10483 10483 10484 10485 10486 10487 10489 10490 10492 10495 10496 10498 10501 10503 10506 10509 10512 10515 10519 10521 10524 10527 10530 10533 10536 10540 10544 10548 10552 10555 10559 10562 10566 10569 10571 10574 10578 10582 10586 10590 10592 10592 10590 10589 10591 10595 10596 10595 10595 10594 10593 10592 10592 10593 10593 10593 10593 10594 10595 10597 10596 10596 10598 10599
10437 10439 10440 10443 10446 10446 10447 10449 10451 10453 10456 10457 10458 10459 10462 10464 10466 10467 10468 10471 10475 10477 10477 10478 10481 10482 10482 10484 10485 10487 10489 10491 10492 10494 10497 10499 10502 10505 10508 10511 10515 10518 10521 10524 10527 10530 10533 10537 10541 10544 10547 10550 10553 10556 10559 10562 10566 10569 10572 10575 10579 10582 10584 10585 10584 10584 10586 10588 10588 10588 10588 10588 10587 10586 10587 10587 10587 10588 10589 10589 10590 10591 10590 10590 10592 10593
10431 10434 10436 10438 10440 10439 10441 10443 10445 10447 10450 10451 10452 10453 10456 10458 10460 10461 10463 10466 10469 10471 10472 10474 10476 10476 10478 10480 10481 10483 10486 10487 10488 10491 10493 10495 10498 10501 10504 10507 10510 10514 10517 10521 10524 10527 10530 10533 10537 10540 10542 10545 10548 10551 10554 10557 10561 10564 10567 10570 10572 10575 10576 10578 10578 10579 10581 10582 10581 10582 10582 10582 10582 10581 10582 10582 10582 10583 10584 10584 10584 10585 10585 10586 10586 10587
10425 10428 10431 10432 10433 10433 10435 10436 10438 10441 10443 10445 10446 10448 10450 10452 10454 10456 10458 10460 10463 10466 10468 10470 10470 10471 10474 10476 10477 10479 10482 10483 10485 10487 10489 10491 10494 10497 10501 10504 10506 10510 10513 10517 10520 10523 10526 10529 10532 10535 10537 10540 10544 10546 10549 10552 10555 10558 10561 10564 10566 10568 10570 10572 10573 10575 10576 10576 10576 10576 10576 10577 10577 10576 10577 10578 10578 10578 10579 10578 10579 10580 10581 10582 10582 10582
10418 10421 10424 10426 10427 10427 10428 10430 10432 10434 10436 10438 10440 10442 10444 10447 10449 10451 10453 10455 10458 10461 10463 10464 10466 10468 10470 10472 10474 10476 10478 10480 10482 10483 10485 10487 10490 10493 10496 10499 10502 10505 10509 10513 10516 10519 10522 10525 10527 10530 10532 10535 10539 10542 10545 10547 10550 10553 10555 10558 10561 10563 10565 10567 10569 10570 10571 10571 10571 10571 10571 10572 10571 10570 10571 10572 10573 10574 10574 10574 10574 10576 10577 10577 10577 10577
10411 10413 10417 10420 10421 10421 10423 10424 10426 10428 10430 10432 10433 10436 10439 10441 10443 10446 10448 10450 10453 10456 10458 10460 10462 10464 10467 10468 10470 10472 10474 10476 10478 10479 10481 10483 10485 10488 10492 10495 10498 10501 10505 10509 10512 10514 10517 10520 10522 10525 10528 10531 10534 10537 10540 10543 10545 10548 10550 10553 10555 10558 10560 10562 10564 10565 10566 10566 10567 10567 10567 10567 10566 10565 10565 10566 10568 10568 10569 10569 10569 10571 10572 10572 10571 10571
10405 10407 10411 10414 10415 10417 10418 10419 10420 10422 10425 10427 10428 10430 10434 10436 10438 10441 10443 10445 10448 10451 10453 10455 10457 10460 10462 10464 10466 10468 10470 10472 10474 10476 10478 10479 10481 10483 10486 10490 10493 10496 10500 10504 10508 10510 10513 10515 10518 10520 10523 10525 10529 10532 10535 10537 10540 10542 10545 10547 10550 10552 10554 10557 10559 10560 10561 10562 10562 10562 10562 10561 10560 10559 10560 10561 10561 10561 10562 10562 10563 10565 10566 10566 10565 10566
10400 10401 10404 10407 10410 10411 10411 10412 10413 10416 10420 10422 10423 10425 10428 10431 10433 10435 10437 10440 10442 10445 10448 10450 10452 10454 10456 10459 10462 10464 10466 10468 10470 10472 10473 10474 10476 10479 10481 10485 10488 10491 10495 10499 10503 10505 10507 10510 10512 10515 10517 10520 10523 10526 10529 10531 10533 10535 10538 10541 10544 10546 10548 10550 10552 10553 10555 10556 10555 10555 10555 10555 10555 10554 10553 10554 10554 10555 10555 10555 10556 10557 10559 10559 10560 10560
10394 10395 10397 10401 10405 10405 10404 10405 10407 10410 10414 10417 10419 10421 10423 10426 10428 10429 10432 10435 10438 10441 10443 10445 10447 10449 10451 10454 10457 10460 10462 10464 10465 10467 10468 10470 10472 10474 10477 10480 10483 10486 10489 10493 10496 10498 10500 10504 10507 10509 10512 10514 10517 10519 10522 10524 10526 10528 10531 10534 10537 10539 10541 10544 10545 10546 10547 10547 10547 10547 10548 10549 10549 10548 10548 10547 10548 10548 10549 10549 10550 10551 10552 10553 10554 10554
10388 10390 10392 10396 10398 10399 10399 10399 10400 10404 10408 10411 10414 10417 10419 10421 10422 10425 10428 10430 10433 10436 10439 10440 10442 10445 10447 10450 10452 10455 10457 10458 10460 10462 10464 10465 10467 10470 10472 10475 10478 10481 10483 10486 10489 10492 10495 10498 10501 10503 10506 10508 10511 10513 10515 10517 10520 10521 10524 10527 10530 10533 10535 10537 10539 10539 10540 10541 10540 10541 10541 10542 10542 10542 10542 10542 10541 10541 10541 10543 10545 10546 10546 10546 10547 10547
10382 10384 10386 10388 10390 10392 10393 10393 10395 10399 10403 10407 10410 10413 10414 10416 10418 10420 10423 10426 10429 10431 10433 10435 10437 10439 10442 10445 10447 10449 10451 10453 10455 10457 10458 10460 10462 10464 10467 10469 10472 10475 10477 10481 10484 10487 10490 10493 10495 10498 10500 10503 10505 10508 10510 10511 10513 10515 10517 10520 10524 10527 10529 10531 10532 10533 10534 10534 10535 10535 10535 10535 10535 10536 10535 10535 10536 10535 10536 10536 10538 10539 10540 10540 10540 10540
10376 10378 10380 10381 10383 10385 10386 10388 10392 10395 10399 10402 10405 10408 10410 10412 10413 10415 10418 10421 10423 10425 10427 10429 10431 10433 10436 10439 10441 10443 10445 10448 10449 10450 10453 10455 10457 10459 10462 10464 10466 10469 10472 10476 10479 10482 10485 10487 10490 10492 10494 10497 10500 10502 10503 10505 10507 10509 10512 10514 10517 10520 10522 10523 10525 10526 10527 10528 10528 10529 10529 10529 10529 10530 10530 10530 10530 10530 10530 10530 10531 10532 10533 10533 10533 10534
10370 10372 10374 10375 10377 10379 10380 10384 10388 10391 10395 10398 10401 10403 10405 10407 10409 10411 10413 10415 10417 10419 10421 10423 10425 10427 10430 10432 10435 10437 10439 10441 10443 10445 10448 10449 10451 10454 10457 10459 10461 10464 10466 10470 10473 10476 10479 10481 10483 10485 10488 10490 10493 10495 10496 10498 10500 10503 10505 10507 10509 10512 10514 10515 10517 10518 10519 10520 10521 10522 10523 10523 10523 10523 10524 10524 10524 10524 10524 10524 10524 10525 10526 10526 10526 10527
10364 10367 10368 10369 10371 10374 10376 10380 10384 10388 10392 10394 10397 10399 10401 10402 10404 10406 10408 10409 10411 10413 10416 10417 10419 10421 10424 10426 10429 10431 10433 10435 10438 10440 10442 10444 10445 10448 10451 10453 10456 10458 10460 10463 10467 10470 10472 10475 10477 10479 10481 10483 10486 10488 10490 10491 10493 10495 10497 10499 10502 10504 10506 10508 10509 10510 10511 10513 10513 10514 10515 10516 10516 10516 10517 10517 10517 10517 10516 10516 10517 10517 10517 10518 10518 10518
10358 10361 10363 10364 10366 10368 10372 10376 10380 10384 10387 10390 10392 10393 10395 10397 10399 10400 10402 10404 10405 10407 10409 10411 10413 10415 10417 10420 10422 10425 10427 10429 10431 10433 10436 10438 10439 10441 10444 10447 10449 10452 10454 10456 10459 10463 10466 10468 10469 10471 10474 10477 10479 10481 10483 10484 10486 10488 10490 10492 10494 10496 10498 10500 10502 10503 10504 10505 10506 10506 10507 10508 10508 10509 10509 10509 10510 10510 10510 10509 10509 10509 10509 10509 10509 10509
10353 10357 10358 10359 10361 10363 10367 10371 10375 10378 10382 10385 10387 10388 10389 10391 10392 10394 10396 10397 10398 10400 10402 10404 10406 10408 10410 10412 10415 10418 10420 10422 10424 10425 10428 10430 10432 10434 10437 10439 10442 10445 10447 10449 10452 10455 10458 10460 10462 10464 10467 10470 10472 10474 10476 10477 10479 10481 10482 10484 10487 10488 10490 10492 10493 10495 10496 10497 10498 10499 10499 10500 10501 10501 10501 10501 10502 10502 10502 10502 10501 10501 10501 10501 10501 10501
10350 10352 10354 10355 10357 10359 10362 10366 10370 10373 10377 10379 10381 10382 10383 10384 10385 10387 10388 10390 10391 10393 10395 10396 10398 10400 10402 10405 10407 10410 10412 10414 10415 10418 10420 10423 10425 10427 10429 10432 10435 10437 10439 10441 10444 10446 10448 10452 10454 10456 10459 10462 10464 10466 10468 10469 10471 10473 10474 10476 10479 10480 10482 10484 10485 10486 10488 10489 10490 10491 10491 10491 10492 10492 10492 10493 10493 10493 10493 10493 10493 10493 10493 10492 10492 10492
10347 10349 10351 10352 10353 10355 10358 10361 10364 10368 10371 10373 10375 10376 10377 10377 10378 10380 10381 10382 10383 10385 10386 10388 10390 10392 10394 10396 10398 10400 10403 10405 10407 10410 10412 10415 10417 10419 10421 10423 10426 10428 10431 10433 10435 10437 10439 10442 10445 10448 10450 10453 10455 10457 10459 10461 10463 10465 10466 10468 10470 10472 10473 10474 10476 10477 10479 10480 10481 10482 10482 10482 10483 10483 10483 10484 10484 10485 10485 10485 10484 10484 10484 10483 10483 10483
10344 10345 10347 10349 10350 10352 10354 10356 10359 10361 10364 10367 10368 10369 10370 10371 10371 10372 10373 10374 10375 10376 10378 10379 10381 10383 10385 10387 10388 10391 10393 10396 10399 10401 10403 10405 10408 10410 10412 10415 10418 10420 10422 10425 10427 10429 10431 10433 10436 10439 10441 10444 10446 10448 10451 10452 10454 10456 10458 10460 10461 10462 10463 10465 10466 10468 10469 10470 10471 10473 10474 10474 10474 10474 10474 10475 10475 10475 10475 10475 10475 10475 10474 10474 10474 10473
10341 10342 10344 10346 10347 10349 10350 10352 10354 10355 10357 10359 10361 10362 10363 10364 10364 10365 10365 10366 10367 10368 10369 10371 10372 10374 10376 10377 10379 10381 10384 10387 10389 10392 10393 10396 10398 10400 10403 10406 10409 10411 10414 10416 10418 10420 10423 10424 10426 10429 10432 10434 10436 10439 10441 10442 10444 10446 10449 10450 10450 10451 10452 10454 10457 10459 10460 10460 10461 10463 10464 10465 10465 10465 10465 10465 10465 10465 10465 10466 10465 10465 10465 10464 10464 10464
10338 10339 10341 10343 10344 10345 10346 10347 10348 10349 10350 10351 10353 10354 10354 10355 10356 10356 10357 10357 10358 10359 10360 10362 10363 10365 10367 10368 10370 10372 10375 10377 10380 10382 10385 10387 10389 10391 10395 10398 10401 10403 10405 10407 10408 10410 10413 10415 10417 10419 10422 10424 10426 10428 10430 10432 10434 10436 10438 10439 10440 10441 10442 10444 10447 10449 10450 10450 10451 10453 10454 10454 10454 10455 10455 10454 10455 10455 10455 10455 10455 10455 10454 10454 10454 10453